Canby, MN

8:03 PM CDT on June 27, 2017 (GMT -0500)
Canby

Weather History for KCNB - August, 2012

Change the Weather History Date:

Monday, August 6, 2012

  Actual Average (KMML) Record (KMML)
Temperature  
Mean Temperature 76 °F -  
Max Temperature 90 °F 81 °F 96 °F (1949)
Min Temperature 61 °F 59 °F 46 °F (1977)
Cooling Degree Days 10    
Growing Degree Days 26 (Base 50)    
Moisture  
Dew Point 58 °F    
Average Humidity 54    
Maximum Humidity 87    
Minimum Humidity 32    
Precipitation  
Precipitation 0.00 in - - ()
Sea Level Pressure  
Sea Level Pressure 30.02 in    
Wind  
Wind Speed 7 mph (SW)    
Max Wind Speed 14 mph    
Max Gust Speed 20 mph    
Visibility 10 miles    
Events      
Averages and records for this station are not official NWS values.
T = Trace of Precipitation, MM = Missing Value Source: NWS Daily Summary

Daily Weather History Graph

Daily Weather History Graph

Search for Another Location

Airport or City:

Trip Planner

Search our weather history database for the weather conditions in past years. The results will help you decide how hot, cold, wet, or windy it might be!

Date:

Astronomy

Aug. 06, 2012 Rise Set
Actual Time 6:17 AM CDT 8:43 PM CDT
Civil Twilight 5:44 AM CDT 9:16 PM CDT
Nautical Twilight 5:03 AM CDT 9:56 PM CDT
Astronomical Twilight 4:17 AM CDT 10:42 PM CDT
Moon 10:35 PM CDT (8/6) 11:23 AM CDT (8/6)
Length of Visible Light 15h 31m
Length of Day
14h 26m
Waning Gibbous, 78% of the Moon is Illuminated
Aug 6
Waning Gibbous
Aug 9
Last Quarter
Aug 17
New
Aug 24
First Quarter
Aug 31
Full

Hourly Weather History & Observations

Time (CDT) Temp. Heat Index Dew Point Humidity Pressure Visibility Wind Dir Wind Speed Gust Speed Precip Events Conditions
12:14 AM 65.5 °F - 53.1 °F 64% 30.12 in 10.0 mi South 8.1 mph - N/A   Clear
12:34 AM 64.6 °F - 53.6 °F 68% 30.12 in 10.0 mi SSW 6.9 mph - N/A   Clear
12:55 AM 64.8 °F - 52.9 °F 65% 30.12 in 10.0 mi SSW 8.1 mph - N/A   Clear
1:14 AM 64.4 °F - 53.1 °F 67% 30.12 in 10.0 mi South 6.9 mph - N/A   Clear
1:34 AM 62.2 °F - 53.6 °F 73% 30.12 in 10.0 mi SSE 3.5 mph - N/A   Clear
1:55 AM 61.3 °F - 53.6 °F 76% 30.11 in 10.0 mi SSE 3.5 mph - N/A   Clear
2:14 AM 63.1 °F - 53.8 °F 71% 30.11 in 10.0 mi South 5.8 mph - N/A   Clear
2:34 AM 64.4 °F - 53.6 °F 68% 30.10 in 10.0 mi South 8.1 mph - N/A   Clear
2:55 AM 65.5 °F - 53.6 °F 65% 30.10 in 10.0 mi SSW 9.2 mph - N/A   Clear
3:15 AM 66.0 °F - 54.0 °F 65% 30.10 in 10.0 mi SSW 8.1 mph - N/A   Clear
3:34 AM 66.2 °F - 53.8 °F 64% 30.10 in 10.0 mi SW 10.4 mph - N/A   Clear
3:54 AM 66.6 °F - 54.0 °F 64% 30.10 in 10.0 mi SSW 12.7 mph 16.1 mph N/A   Clear
4:15 AM 66.2 °F - 54.1 °F 65% 30.09 in 10.0 mi SSW 11.5 mph 17.3 mph N/A   Clear
4:35 AM 66.7 °F - 53.8 °F 63% 30.08 in 10.0 mi SSW 10.4 mph 18.4 mph N/A   Clear
4:54 AM 66.7 °F - 54.0 °F 63% 30.08 in 10.0 mi SSW 9.2 mph 17.3 mph N/A   Clear
5:14 AM 66.7 °F - 54.0 °F 63% 30.07 in 10.0 mi SSW 10.4 mph 16.1 mph N/A   Clear
5:35 AM 66.6 °F - 53.8 °F 63% 30.06 in 10.0 mi SSW 10.4 mph 17.3 mph N/A   Clear
5:54 AM 66.2 °F - 53.8 °F 64% 30.06 in 10.0 mi SSW 9.2 mph - N/A   Clear
6:15 AM 66.2 °F - 53.8 °F 64% 30.06 in 10.0 mi SSW 11.5 mph 17.3 mph N/A   Clear
6:35 AM 66.6 °F - 53.8 °F 63% 30.05 in 10.0 mi SSW 12.7 mph 18.4 mph N/A   Clear
6:54 AM 67.5 °F - 53.6 °F 61% 30.05 in 10.0 mi SSW 10.4 mph - N/A   Clear
7:14 AM 69.1 °F - 53.2 °F 57% 30.04 in 10.0 mi SSW 13.8 mph 19.6 mph N/A   Clear
7:35 AM 70.2 °F - 52.7 °F 54% 30.05 in 10.0 mi SSW 13.8 mph 19.6 mph N/A   Clear
7:55 AM 72.0 °F - 52.5 °F 50% 30.05 in 10.0 mi South 10.4 mph 17.3 mph N/A   Clear
8:15 AM 73.4 °F - 52.2 °F 47% 30.05 in 10.0 mi South 9.2 mph 18.4 mph N/A   Clear
8:34 AM 73.8 °F - 53.1 °F 48% 30.05 in 10.0 mi SSE 11.5 mph - N/A   Clear
8:55 AM 74.5 °F - 54.5 °F 50% 30.04 in 10.0 mi SSE 8.1 mph - N/A   Clear
9:14 AM 75.7 °F - 55.4 °F 49% 30.03 in 10.0 mi SE 6.9 mph - N/A   Clear
9:35 AM 77.7 °F - 56.5 °F 48% 30.03 in 10.0 mi SE 8.1 mph - N/A   Clear
9:54 AM 79.5 °F - 56.8 °F 46% 30.03 in 10.0 mi South 10.4 mph 16.1 mph N/A   Clear
10:14 AM 80.2 °F 80.4 °F 56.3 °F 44% 30.02 in 10.0 mi South 6.9 mph - N/A   Clear
10:34 AM 81.3 °F 81.1 °F 55.9 °F 42% 30.02 in 10.0 mi SSW 9.2 mph - N/A   Clear
10:54 AM 81.3 °F 81.1 °F 56.1 °F 42% 30.01 in 10.0 mi SW 10.4 mph - N/A   Clear
11:15 AM 81.3 °F 81.2 °F 57.0 °F 43% 30.01 in 10.0 mi SSW 5.8 mph - N/A   Clear
11:34 AM 82.2 °F 81.9 °F 57.2 °F 42% 30.01 in 10.0 mi SW 6.9 mph - N/A   Clear
11:54 AM 82.0 °F 81.8 °F 57.4 °F 43% 30.01 in 10.0 mi West 5.8 mph - N/A   Clear
12:15 PM 83.7 °F 83.1 °F 57.4 °F 41% 30.00 in 10.0 mi WSW 8.1 mph - N/A   Clear
12:34 PM 83.8 °F 83.1 °F 57.2 °F 40% 30.00 in 10.0 mi West 6.9 mph - N/A   Clear
12:54 PM 84.4 °F 83.7 °F 57.4 °F 40% 29.99 in 10.0 mi SW 5.8 mph - N/A   Clear
1:15 PM 85.3 °F 84.4 °F 57.9 °F 39% 29.98 in 10.0 mi WSW 5.8 mph - N/A   Clear
1:34 PM 85.6 °F 84.8 °F 58.3 °F 39% 29.98 in 10.0 mi WSW 5.8 mph - N/A   Clear
1:55 PM 86.7 °F 85.6 °F 57.6 °F 37% 29.98 in 10.0 mi SW 4.6 mph - N/A   Clear
2:14 PM 86.7 °F 85.9 °F 57.9 °F 38% 29.97 in 10.0 mi South 5.8 mph - N/A   Clear
2:35 PM 87.4 °F 86.3 °F 57.2 °F 36% 29.97 in 10.0 mi SW 6.9 mph - N/A   Clear
2:54 PM 88.3 °F 87.1 °F 57.4 °F 35% 29.97 in 10.0 mi SW 4.6 mph - N/A   Clear
3:14 PM 89.2 °F 87.9 °F 57.7 °F 34% 29.97 in 10.0 mi West 8.1 mph - N/A   Clear
3:35 PM 89.1 °F 88.0 °F 57.7 °F 35% 29.96 in 10.0 mi Calm Calm - N/A   Clear
4:15 PM 90.0 °F 88.8 °F 57.7 °F 34% 29.95 in 10.0 mi SW 4.6 mph - N/A   Clear
4:34 PM 90.3 °F 89.3 °F 58.1 °F 34% 29.95 in 10.0 mi WNW 5.8 mph - N/A   Clear
4:54 PM 90.5 °F 89.3 °F 58.1 °F 33% 29.95 in 10.0 mi Calm Calm - N/A   Clear
5:15 PM 90.5 °F 89.0 °F 57.0 °F 32% 29.95 in 10.0 mi West 3.5 mph - N/A   Clear
5:34 PM 90.5 °F 89.3 °F 57.9 °F 33% 29.95 in 10.0 mi WNW 4.6 mph - N/A   Clear
5:54 PM 90.5 °F 89.5 °F 58.5 °F 34% 29.95 in 10.0 mi West 4.6 mph - N/A   Clear
6:15 PM 89.6 °F 89.5 °F 60.8 °F 38% 29.95 in 10.0 mi NNE 4.6 mph - N/A   Clear
6:34 PM 89.4 °F 89.2 °F 60.8 °F 38% 29.95 in 10.0 mi NNE 4.6 mph - N/A   Clear
6:54 PM 89.2 °F 89.3 °F 61.5 °F 39% 29.95 in 10.0 mi Calm Calm - N/A   Clear
7:15 PM 88.0 °F 89.0 °F 63.7 °F 44% 29.95 in 10.0 mi North 3.5 mph - N/A   Clear
7:34 PM 86.0 °F 87.6 °F 64.9 °F 49% 29.95 in 10.0 mi North 8.1 mph - N/A   Clear
7:55 PM 84.0 °F 85.6 °F 64.8 °F 52% 29.96 in 10.0 mi North 5.8 mph - N/A   Clear
8:14 PM 82.4 °F 84.2 °F 65.1 °F 56% 29.96 in 10.0 mi North 4.6 mph - N/A   Clear
8:35 PM 79.7 °F - 65.5 °F 62% 29.96 in 10.0 mi North 3.5 mph - N/A   Clear
8:54 PM 78.8 °F - 64.9 °F 62% 29.96 in 10.0 mi North 3.5 mph - N/A   Clear
9:14 PM 77.5 °F - 65.3 °F 66% 29.97 in 10.0 mi NNW 3.5 mph - N/A   Clear
9:35 PM 73.9 °F - 65.7 °F 75% 29.97 in 10.0 mi Calm Calm - N/A   Clear
9:54 PM 72.9 °F - 65.5 °F 78% 29.98 in 10.0 mi NW 3.5 mph - N/A   Clear
10:14 PM 72.3 °F - 65.5 °F 79% 29.98 in 10.0 mi Calm Calm - N/A   Clear
10:35 PM 70.9 °F - 64.9 °F 81% 29.99 in 10.0 mi Calm Calm - N/A   Clear
10:54 PM 69.8 °F - 64.6 °F 83% 29.99 in 10.0 mi Calm Calm - N/A   Clear
11:14 PM 69.3 °F - 64.4 °F 84% 29.99 in 10.0 mi SW 3.5 mph - N/A   Clear
11:34 PM 68.4 °F - 64.0 °F 86% 29.99 in 10.0 mi SW 3.5 mph - N/A   Clear
11:55 PM 67.8 °F - 63.7 °F 87% 29.99 in 10.0 mi SW 3.5 mph - N/A   Clear